Theta_e
308 298 295 294 297 300 302 301 300 300 299 298 297 296 294 295 296 299 300 302 304 301 300 300 301 301 302 303 305 306 307 306 306 306 306 306 307 309 309 309 309 309 310 315 318 320 322 323 324 324 324 324 326 326 328 328 329 329 328 327 326 326 327 326 325 325 324 323 322 322 322 322 323 323 324 324 325 324 325 325 325 325 325 324 323 323
305 296 295 298 300 301 302 303 302 300 300 298 296 295 293 295 293 299 299 301 303 298 297 300 300 300 301 303 304 306 306 304 305 305 306 306 307 307 308 309 309 309 312 315 316 316 319 321 324 324 324 322 323 324 325 326 328 329 329 327 327 326 327 326 326 325 325 324 324 322 322 323 323 323 322 322 323 324 324 324 325 325 325 325 324 323
296 294 297 301 303 303 303 303 302 300 298 298 295 294 293 293 297 299 299 300 301 299 295 297 296 297 300 302 303 303 304 305 306 306 307 307 307 308 308 308 309 309 309 311 313 314 313 318 323 324 324 324 324 324 324 325 326 328 328 328 328 327 327 327 326 326 325 325 325 324 323 323 323 324 324 323 323 323 323 324 324 324 325 325 324 324
291 295 299 303 303 301 301 302 301 300 299 297 295 293 291 295 293 289 296 298 300 297 294 295 295 296 299 301 302 304 304 304 306 306 306 308 307 307 308 309 309 309 309 310 311 312 313 316 320 321 323 324 324 322 323 324 324 326 327 328 328 328 327 327 327 325 327 326 326 326 325 325 324 323 324 324 323 323 323 323 324 324 324 324 324 324
292 296 302 302 301 300 298 300 299 297 296 298 297 295 294 294 295 294 294 298 299 299 299 296 295 295 298 297 299 302 304 304 305 305 305 306 307 309 310 310 310 308 309 310 310 311 312 313 317 319 320 324 323 323 323 323 323 325 326 327 328 329 328 328 326 326 327 326 325 325 325 323 323 323 323 323 322 323 322 323 323 323 324 323 323 323
294 298 301 299 299 299 298 296 297 297 294 296 298 298 297 297 296 296 297 296 293 293 296 296 286 288 294 296 298 301 302 302 304 303 303 304 305 306 307 308 309 310 310 309 310 311 311 313 314 316 317 319 322 323 323 324 324 324 325 326 327 328 329 328 328 327 327 325 325 323 322 321 321 320 321 320 320 321 321 322 323 323 324 323 322 322
294 298 298 296 297 297 297 296 298 299 294 293 295 301 300 299 298 297 296 295 288 286 294 298 287 284 292 293 296 298 299 300 302 302 303 304 305 305 306 307 308 309 310 310 311 311 310 311 312 314 315 317 319 322 324 324 324 324 324 325 326 327 328 329 328 328 326 326 325 324 323 322 321 321 321 323 323 323 323 323 322 323 323 324 323 322
297 296 296 296 295 295 294 293 297 298 294 291 299 300 300 299 297 297 296 295 292 296 297 297 294 287 287 293 297 298 298 298 299 301 302 303 304 305 306 306 307 309 309 309 310 311 311 311 311 311 313 316 319 321 323 323 323 323 323 324 325 326 326 328 328 328 327 325 325 324 324 323 322 322 322 323 323 324 323 323 323 323 323 323 323 322
297 294 295 294 294 293 292 295 298 299 295 294 300 302 299 298 298 298 296 294 294 292 288 292 295 288 287 292 296 297 295 296 298 299 301 302 302 303 305 306 307 309 309 309 309 311 312 312 313 313 313 314 315 320 321 322 324 324 324 323 324 325 325 325 327 327 327 325 325 325 324 323 323 323 323 323 323 323 323 323 323 323 323 323 323 323
297 297 297 297 295 292 295 297 298 299 294 298 301 302 301 300 299 298 293 292 291 288 284 289 293 286 286 292 292 294 294 294 296 298 300 302 303 303 305 306 308 309 309 309 310 311 312 313 313 314 314 315 315 315 320 321 322 324 324 323 322 323 325 325 326 326 327 326 324 324 324 323 323 323 323 323 322 322 323 322 322 323 322 323 322 323
296 300 302 299 295 297 297 298 299 298 299 301 299 297 296 296 294 293 292 291 286 284 287 292 293 290 283 289 290 291 294 296 298 299 300 302 303 304 305 305 308 309 309 308 309 311 312 313 313 313 312 314 315 315 315 318 320 322 323 323 322 323 324 324 325 325 325 326 325 324 324 324 323 323 323 322 322 322 322 322 322 322 322 322 322 323
295 298 296 298 302 301 300 297 300 301 300 298 294 292 292 289 292 289 287 289 283 282 289 293 293 293 283 288 294 298 299 300 299 298 299 299 300 302 303 305 306 306 307 309 309 309 310 311 312 312 311 312 313 314 315 315 318 320 322 322 322 322 323 324 324 324 325 326 325 324 324 324 324 324 323 322 321 322 322 322 321 322 322 322 322 322
289 291 296 300 301 300 297 295 296 298 298 296 293 291 286 282 285 280 285 280 282 281 288 292 293 289 288 292 296 298 299 298 298 299 300 301 302 303 303 304 304 305 305 307 308 309 309 309 310 309 311 310 311 313 314 315 316 319 321 322 322 321 322 323 324 324 324 324 325 325 324 324 324 324 324 323 322 322 322 322 322 321 321 322 321 322
286 292 293 294 298 299 299 291 290 290 294 293 291 288 284 280 279 277 280 281 282 285 289 289 292 287 292 294 299 299 301 302 303 303 302 301 301 300 302 303 303 304 305 306 307 307 307 308 309 309 310 311 312 312 314 314 315 318 320 321 321 322 322 323 323 323 323 324 324 325 325 324 324 323 324 324 323 323 323 323 323 322 322 322 322 322
279 280 287 292 288 299 297 295 294 291 293 293 295 292 287 285 280 276 278 276 278 280 284 289 284 280 286 289 299 299 301 303 304 304 304 304 304 303 302 302 302 302 302 302 304 306 306 307 307 309 311 312 313 314 314 314 314 317 318 319 320 320 321 322 322 323 323 323 324 324 325 325 324 324 323 324 325 324 323 323 323 323 323 323 323 323
282 283 290 295 294 298 294 298 298 295 291 295 296 295 288 285 290 281 282 280 279 280 281 283 283 286 288 295 298 300 300 301 300 303 303 303 304 304 304 303 303 304 304 305 305 306 306 306 307 308 310 312 313 314 314 314 314 314 316 317 318 319 320 321 320 322 322 323 323 324 324 324 324 322 322 322 323 324 325 324 323 323 324 324 324 323
284 281 292 293 295 294 295 297 296 297 283 291 294 287 290 296 292 285 285 285 283 282 279 286 286 290 294 297 298 298 298 298 298 299 299 299 301 302 303 304 304 305 305 306 306 305 305 305 306 308 307 308 309 311 313 314 314 315 315 315 316 316 317 317 318 320 322 323 322 322 323 323 323 323 322 322 322 323 324 324 324 324 324 324 324 324
282 282 291 290 288 293 296 298 297 297 296 291 287 291 297 296 291 285 280 283 282 278 280 287 283 285 285 282 297 297 297 298 298 298 300 301 301 300 302 303 303 303 304 305 305 304 305 306 307 308 308 308 309 310 312 313 314 315 316 315 315 315 315 316 317 317 319 320 321 322 322 323 323 323 323 322 322 322 322 323 323 324 323 323 324 324
289 278 286 291 292 293 296 295 293 297 298 291 290 299 290 282 283 286 284 277 278 277 279 283 284 285 286 287 291 291 294 296 297 299 300 299 301 301 302 302 302 303 304 304 305 306 307 307 308 308 310 310 312 312 311 312 313 313 314 315 315 315 314 315 316 316 317 319 321 322 322 322 322 323 323 323 322 322 321 321 322 323 324 324 323 322
289 279 281 291 291 293 293 291 282 288 294 296 295 291 294 289 286 284 284 285 283 277 279 278 283 281 290 289 292 293 295 296 296 296 298 298 300 302 302 303 303 303 304 306 306 306 307 307 307 307 307 307 307 307 307 309 309 310 310 310 311 312 312 312 313 313 314 316 318 320 321 322 322 322 322 322 322 321 321 321 322 322 322 323 323 323
283 286 276 284 292 293 285 288 285 288 285 287 287 286 288 284 289 288 287 283 280 278 278 276 277 281 291 294 294 294 295 296 297 297 297 299 300 302 304 304 304 303 303 303 304 304 305 306 306 305 304 305 304 304 304 305 307 308 308 309 309 309 310 310 311 312 313 314 316 316 318 320 321 321 322 321 322 321 321 321 320 322 322 322 322 322
282 283 279 283 284 285 286 293 292 291 291 289 288 286 287 285 283 279 277 287 283 281 279 280 276 284 294 298 297 296 296 297 297 297 298 298 300 302 303 302 302 303 303 303 304 304 304 304 304 304 303 303 303 303 303 304 305 305 306 308 309 309 309 309 310 310 311 312 314 314 316 318 320 321 321 320 321 320 321 321 321 321 321 321 322 322
289 285 281 279 283 286 289 291 293 288 283 286 290 288 290 288 286 282 276 279 282 284 284 284 280 283 295 295 295 296 297 297 297 297 297 298 299 301 302 302 302 303 303 304 303 303 303 303 303 304 303 303 303 303 303 304 304 304 304 305 307 308 309 309 309 309 310 310 311 312 314 316 318 319 319 319 320 319 320 320 321 321 320 320 321 321
292 283 281 280 285 288 291 287 288 289 288 285 283 283 289 287 287 285 283 282 280 280 280 279 278 281 293 294 294 295 296 295 296 295 296 296 297 298 298 300 302 303 303 303 302 303 302 302 301 302 302 303 303 302 302 303 304 305 305 305 304 305 306 306 307 307 308 309 309 310 311 313 316 317 318 318 319 318 319 320 320 319 320 320 320 320
285 284 284 278 277 279 281 285 288 288 288 284 286 286 288 290 290 283 281 281 281 281 282 279 275 280 289 292 292 293 293 293 293 294 294 295 296 297 298 299 301 303 303 302 302 300 300 300 300 302 302 302 303 302 303 304 304 304 304 303 303 303 303 304 304 304 305 305 305 306 308 309 312 314 315 316 317 317 317 318 318 318 318 319 318 319
287 285 283 277 274 272 272 274 276 280 284 285 286 287 287 288 285 283 282 281 279 283 284 281 279 286 289 290 290 291 291 291 293 294 294 295 295 296 297 298 299 301 302 301 300 299 298 298 298 297 298 301 303 303 303 302 302 303 302 301 300 301 301 301 301 301 302 302 302 303 304 306 308 311 313 314 315 315 315 316 316 317 316 317 319 318
285 287 285 283 281 278 280 279 282 284 285 282 284 286 287 288 288 286 283 282 279 283 282 283 284 283 284 287 288 290 291 290 291 293 293 294 295 296 296 298 300 301 300 300 300 301 300 298 300 301 301 301 301 300 301 299 300 299 297 298 298 298 298 300 299 299 300 300 300 301 302 304 306 308 310 312 313 314 313 314 314 315 316 315 316 317
285 283 285 285 284 284 284 279 286 286 283 285 285 285 287 287 287 285 282 281 287 282 278 284 285 280 283 287 289 290 291 291 292 292 293 293 293 295 297 298 298 300 300 300 301 301 300 300 301 301 301 300 301 301 300 299 299 297 297 301 300 299 298 301 298 298 298 298 299 300 301 302 304 306 308 309 311 312 313 313 313 314 315 313 315 315
285 282 285 285 284 286 287 285 286 286 286 284 284 286 285 287 286 283 283 285 285 281 279 285 286 283 285 288 289 290 291 292 292 293 293 293 294 294 295 298 299 299 299 298 299 300 300 300 300 301 301 302 301 301 300 300 298 300 302 302 301 299 299 298 297 297 297 297 298 299 300 301 303 305 306 307 309 311 312 313 313 313 313 313 314 315
288 283 284 286 284 285 286 286 287 286 284 285 285 285 287 287 287 286 285 286 285 283 284 284 284 284 287 288 290 292 293 293 294 294 293 292 294 294 294 295 295 295 295 296 296 297 297 297 298 299 299 299 300 300 300 300 301 302 302 302 302 301 299 296 297 297 297 297 298 298 298 300 301 303 304 306 308 309 309 311 311 311 312 312 312 312
289 283 288 284 282 282 285 286 286 286 285 281 284 285 286 287 287 288 287 287 286 285 286 285 285 285 290 292 292 294 294 294 294 292 293 294 293 293 292 292 292 292 293 293 294 294 295 295 295 295 295 296 296 297 297 298 299 300 301 301 301 301 300 297 298 297 296 297 297 297 297 298 299 301 302 304 306 306 307 309 310 309 309 309 310 311
289 283 287 283 280 280 282 283 284 282 282 280 282 284 285 285 283 285 285 287 285 284 285 285 284 284 290 293 293 294 294 293 292 293 294 293 291 291 290 290 290 290 291 292 293 293 293 293 293 293 293 294 294 294 295 296 297 298 298 298 299 300 300 298 297 296 297 297 297 297 297 297 298 299 300 301 303 304 305 304 304 306 307 307 308 308
286 284 282 283 279 278 280 283 281 278 278 278 280 284 285 286 287 287 288 288 288 289 284 282 284 290 291 291 290 291 292 292 291 291 291 290 290 289 289 288 288 289 289 291 291 292 292 292 292 293 293 293 294 294 294 295 294 293 294 294 295 297 297 297 297 296 296 296 296 296 296 297 298 298 299 300 301 301 302 303 304 304 304 306 306 302
287 285 283 284 278 277 280 281 282 280 273 275 287 290 288 285 286 285 285 287 289 290 287 290 290 291 291 291 290 290 291 292 290 290 290 290 289 288 288 289 289 290 290 290 290 291 291 292 292 291 291 292 292 293 293 293 292 292 292 293 294 294 295 295 296 296 296 296 296 296 296 296 296 297 298 298 298 298 299 300 302 301 301 300 298 305
286 285 282 282 279 276 281 282 279 273 275 286 290 291 290 290 289 287 288 289 289 290 290 290 290 291 292 292 290 291 290 290 290 290 290 290 290 290 289 289 289 289 290 289 289 289 290 290 290 290 291 291 291 291 291 291 291 291 291 292 292 293 293 294 294 295 295 295 295 295 295 295 295 296 296 296 296 297 297 299 299 299 299 298 301 304
286 285 284 280 281 283 280 279 272 274 284 288 289 290 291 291 289 287 285 288 290 290 291 289 291 292 292 291 292 291 290 290 290 290 290 290 290 290 290 289 289 289 288 289 288 289 289 289 289 290 291 291 291 291 290 290 290 289 290 290 291 291 292 292 293 293 294 294 294 295 295 295 295 295 295 295 294 294 295 295 297 298 295 298 300 300
288 286 284 279 283 277 279 278 277 280 281 282 282 284 287 284 285 284 279 284 290 291 291 290 291 292 291 290 291 291 289 288 286 288 289 290 290 290 291 290 290 289 290 289 289 289 290 289 289 290 290 290 290 290 290 289 289 289 289 289 290 289 290 291 291 291 291 291 292 293 293 294 294 294 294 293 292 292 293 292 293 293 292 297 297 297
289 284 283 280 277 281 277 276 277 275 273 278 284 288 292 291 291 290 285 282 289 291 292 291 290 290 289 290 291 290 289 285 284 285 289 290 292 292 291 292 292 291 290 290 290 290 290 289 289 290 290 290 289 289 288 288 288 288 287 288 288 288 289 289 289 289 289 289 290 291 291 292 292 292 292 292 291 291 291 290 289 289 289 294 296 296
288 287 283 282 278 279 277 275 275 274 277 283 286 289 291 290 292 289 283 280 286 290 291 292 289 289 288 288 288 291 287 283 283 288 291 289 290 290 290 290 290 290 290 290 290 289 288 288 288 289 288 288 288 289 288 287 287 287 287 287 287 287 287 288 288 288 288 288 289 289 290 291 291 291 291 291 291 290 290 290 290 289 289 292 295 296
285 284 283 280 279 279 278 275 274 275 274 282 286 286 290 292 293 287 274 275 286 290 291 290 289 289 288 288 286 288 288 284 285 290 291 289 289 288 289 289 288 288 289 290 290 290 289 287 287 287 287 287 288 288 288 287 287 286 286 286 286 286 286 287 287 287 287 287 288 288 288 289 289 289 289 290 290 289 289 289 288 288 287 290 293 295
282 282 283 279 280 281 280 278 279 279 283 284 286 288 289 292 288 278 273 281 286 287 290 290 289 288 288 286 286 285 288 291 291 291 290 290 289 288 289 289 290 289 289 289 289 288 286 286 287 287 287 288 288 288 287 286 286 286 286 285 285 286 286 286 286 286 286 286 286 286 286 287 287 287 288 288 288 289 288 288 288 287 287 289 291 291
282 283 282 283 280 279 280 277 278 280 283 288 287 290 290 288 275 276 284 286 288 287 288 290 289 288 285 286 287 289 290 290 290 289 289 288 289 289 289 289 289 288 288 287 287 286 286 285 286 286 287 287 288 288 288 286 286 285 285 285 285 285 286 285 285 284 284 284 285 285 286 286 286 286 287 287 287 287 287 287 287 287 288 288 289 289
282 280 279 279 282 281 281 278 276 273 282 290 288 286 287 280 280 286 287 286 288 288 288 287 288 287 288 287 289 290 290 289 289 288 288 287 287 287 287 286 286 287 287 287 286 286 285 286 286 286 286 287 288 288 288 287 286 285 285 285 285 286 285 285 284 283 283 283 284 285 285 286 286 286 286 286 286 286 287 287 287 287 288 288 288 288
287 280 280 281 284 278 278 276 277 283 286 290 289 282 286 286 289 289 290 287 287 287 287 287 287 288 288 288 288 287 288 289 288 286 284 285 285 284 283 283 284 284 285 286 286 286 285 285 285 285 285 286 287 287 287 287 287 287 286 285 286 285 284 284 283 283 283 284 284 284 285 285 286 286 286 286 286 286 286 287 287 287 288 288 288 288
287 283 285 280 285 281 280 283 284 283 287 288 290 289 290 291 291 291 291 290 288 287 286 288 287 287 287 287 286 286 284 285 284 284 284 283 282 283 283 283 282 283 283 284 284 284 284 284 284 284 285 285 284 285 286 286 286 286 286 287 285 284 283 283 282 283 283 283 284 284 285 285 285 286 286 286 285 286 286 286 287 287 287 287 288 288
287 289 285 286 284 286 286 287 288 286 287 288 289 290 291 291 289 291 290 289 288 290 289 288 288 288 287 285 285 282 283 283 284 283 283 283 283 284 283 283 282 281 282 282 282 282 282 282 283 283 284 285 285 285 284 284 283 284 286 286 285 284 283 282 282 282 283 283 284 284 285 285 286 286 286 286 286 285 284 286 287 287 287 287 287 288
282 285 283 280 282 283 279 284 285 286 288 289 289 289 288 289 289 289 290 291 290 290 289 289 289 288 288 286 285 282 282 281 282 282 282 283 283 283 283 283 282 282 282 282 283 282 282 280 282 283 283 284 285 284 284 284 284 284 284 284 284 283 282 282 282 283 283 283 284 285 285 285 286 286 286 286 286 286 285 284 285 286 287 287 287 287
280 285 283 282 281 282 278 283 285 287 288 289 289 287 288 289 288 288 290 291 291 289 288 289 288 286 286 285 285 283 283 282 281 280 281 281 282 282 281 281 282 281 281 281 282 281 280 281 280 282 282 283 284 284 285 285 285 285 284 283 282 281 282 282 282 282 283 284 285 285 285 285 286 286 286 286 286 286 286 285 285 285 286 287 287 287
283 286 281 283 281 281 281 282 284 285 285 288 287 286 289 290 288 287 289 289 288 287 286 286 287 286 286 286 285 284 282 281 281 281 281 281 280 280 281 281 280 281 281 281 281 281 282 280 281 282 282 283 283 284 284 285 285 284 284 284 282 279 280 282 282 282 283 284 285 285 285 285 285 286 286 286 287 286 286 286 287 286 286 286 287 287
283 281 281 282 278 278 279 281 284 281 278 285 285 286 287 289 289 287 287 287 286 286 285 286 285 284 285 284 283 282 281 281 280 280 280 280 280 280 280 280 280 280 280 280 281 279 280 280 280 281 282 282 283 283 283 284 284 285 284 283 281 278 280 280 281 281 282 283 284 285 285 285 285 285 286 286 286 287 287 287 287 287 287 287 286 287
283 282 282 281 280 280 283 285 285 285 285 287 288 287 288 288 287 286 287 287 286 285 285 285 284 283 284 284 283 283 281 282 281 280 279 279 280 280 280 279 280 280 281 280 280 280 280 280 281 281 281 282 282 282 282 283 284 284 284 283 282 278 279 277 279 281 282 283 283 284 284 285 285 285 285 286 286 286 286 287 288 287 287 287 287 287
Wind_Speed
4 7 10 12 14 12 13 14 13 10 11 10 5 8 10 9 8 6 7 8 8 6 10 9 10 12 12 10 10 7 7 12 14 13 12 9 8 9 9 9 8 7 8 6 6 5 5 9 9 8 7 7 8 8 9 10 10 11 11 10 12 11 11 11 11 11 11 11 10 9 11 12 10 10 10 9 10 10 11 11 10 10 10 10 11 12
8 10 14 17 10 7 10 13 12 12 13 12 10 10 8 6 6 4 5 4 6 8 5 6 11 14 13 10 10 10 12 14 10 11 12 13 13 11 9 10 10 9 5 5 4 5 6 6 9 9 8 8 9 9 10 11 13 12 12 12 11 9 11 12 12 11 12 12 13 13 13 11 10 9 11 12 11 12 10 11 12 12 11 12 11 11
11 17 17 12 6 8 9 9 12 14 13 12 10 9 9 10 5 6 8 4 4 3 5 5 11 11 10 11 10 11 12 10 10 12 13 11 11 11 11 9 8 7 8 6 6 6 5 7 8 9 9 10 13 12 12 12 11 11 12 11 10 11 12 12 13 12 13 12 12 12 11 12 10 10 10 9 8 8 9 10 12 12 11 12 12 12
12 14 19 9 8 9 9 10 9 10 12 10 10 10 12 7 5 6 7 6 7 5 4 4 11 10 9 10 12 13 14 12 13 15 14 13 14 13 11 9 9 10 9 9 8 8 8 8 9 8 9 11 11 10 11 11 12 11 11 11 11 12 13 12 13 13 13 13 13 11 8 8 9 8 9 9 8 8 9 12 11 11 12 13 12 13
15 8 4 9 13 12 10 12 13 10 11 11 12 10 10 9 8 8 5 4 4 6 8 7 9 12 11 12 11 10 9 12 14 13 15 14 12 11 8 8 8 8 7 9 10 9 8 9 11 13 12 12 11 12 12 13 13 11 14 15 15 13 14 14 14 15 12 10 9 9 7 5 7 5 7 9 11 11 12 11 12 14 12 12 13 13
14 13 4 10 13 11 11 12 14 10 10 9 11 13 11 7 8 9 6 7 6 9 4 1 5 14 7 12 16 12 11 17 15 15 18 16 15 11 11 12 9 10 8 9 9 9 9 10 10 11 13 13 12 13 13 14 15 14 14 15 15 13 13 14 15 15 12 11 12 11 11 11 10 11 11 14 17 14 15 16 13 11 13 14 13 13
12 10 11 11 10 14 14 12 10 12 11 10 10 10 10 10 10 10 9 5 7 7 1 1 8 14 2 5 7 7 12 16 11 14 14 12 13 13 11 11 11 11 11 11 12 11 10 9 8 9 10 13 13 13 13 13 13 15 15 16 17 16 15 15 15 16 13 13 12 15 16 15 15 15 14 13 10 12 12 10 11 12 12 14 14 14
7 14 13 11 10 10 12 13 11 13 10 12 5 3 7 12 13 11 9 10 10 3 4 1 3 8 17 13 11 8 12 8 7 8 9 11 12 12 13 13 12 10 9 9 11 12 13 13 13 12 10 10 13 13 12 11 10 13 15 15 16 14 15 15 15 15 16 15 15 15 15 14 14 16 16 13 12 10 8 11 13 11 12 13 14 14
16 12 13 12 11 10 12 12 11 11 10 7 2 4 3 3 1 4 8 9 6 4 9 9 4 8 14 17 4 6 10 9 14 13 11 10 7 7 11 13 11 10 9 10 10 11 12 15 15 14 14 13 11 11 12 12 13 14 15 15 13 13 13 12 13 14 16 16 16 16 14 14 14 15 13 9 9 10 10 12 11 12 13 13 14 14
7 15 17 16 10 12 10 9 8 12 13 10 3 3 2 3 1 3 3 3 3 5 12 12 9 9 17 17 4 5 9 10 9 9 12 11 12 13 12 10 12 10 9 11 11 12 14 13 13 13 12 12 13 10 10 11 11 11 11 12 13 15 13 13 14 14 15 17 15 14 14 17 15 12 11 9 10 11 11 13 13 12 12 12 13 15
5 7 8 10 12 10 8 7 5 8 9 1 4 5 3 1 2 3 2 1 3 11 15 16 13 13 13 14 4 6 7 7 8 7 7 8 11 12 11 8 7 10 10 8 11 11 11 12 12 11 11 11 10 9 8 8 9 9 10 11 13 15 13 12 13 14 16 15 14 14 16 18 17 16 13 11 12 11 11 13 14 12 12 11 13 12
11 2 4 3 9 6 5 6 7 3 4 9 5 4 1 1 0 2 1 1 8 14 15 18 14 14 14 14 2 7 8 8 8 9 7 6 5 5 7 9 9 7 8 11 10 8 8 8 9 9 10 7 7 7 6 6 6 7 8 9 11 11 12 11 12 13 15 14 15 15 16 17 17 16 12 15 16 15 14 14 13 11 10 11 11 11
11 11 2 2 2 8 7 7 6 2 2 4 6 7 9 3 5 7 4 10 14 15 4 4 8 10 17 17 14 6 8 4 4 4 5 8 10 13 8 6 6 7 7 7 7 7 7 8 9 7 8 6 6 6 7 8 7 8 8 10 11 12 12 13 13 15 16 16 15 16 17 17 16 16 16 15 15 14 14 13 13 12 13 11 11 12
9 10 10 5 2 8 9 13 9 10 8 7 10 9 9 8 8 10 9 6 7 8 9 10 7 13 0 9 18 22 23 17 21 22 12 8 7 4 2 1 2 3 4 5 5 5 6 7 7 7 7 5 6 7 8 8 8 7 8 9 11 13 12 13 13 14 14 15 15 15 15 16 15 15 15 15 15 15 13 12 14 14 14 13 14 14
9 10 14 11 8 9 12 10 10 4 8 9 4 9 10 9 5 9 7 13 13 9 1 9 5 4 11 10 13 9 12 16 15 14 14 19 16 10 7 8 8 7 6 5 6 9 11 12 9 8 7 5 5 6 8 7 7 7 8 9 11 11 11 11 13 12 13 13 14 15 15 15 13 14 14 14 13 14 14 14 14 13 12 12 13 14
14 10 5 22 7 14 13 12 9 6 3 8 8 3 6 14 8 14 2 4 3 4 5 5 6 3 6 2 7 6 12 12 7 14 14 14 14 15 12 12 12 11 10 10 11 13 12 9 7 6 5 5 5 6 6 6 6 6 7 8 10 11 11 12 12 12 13 14 13 15 16 16 16 14 13 12 12 13 13 14 13 13 13 12 12 12
5 11 6 13 18 11 16 13 11 8 9 7 9 14 15 10 11 5 9 7 5 5 8 1 6 7 4 11 13 10 7 7 3 7 7 6 8 10 12 13 13 12 10 11 11 9 7 5 5 5 6 6 6 5 5 6 6 6 7 7 9 9 9 10 11 12 12 13 13 14 15 15 14 15 16 15 15 15 13 12 12 12 12 11 11 11
11 8 10 6 15 17 13 9 6 9 4 1 9 11 3 7 5 3 7 4 10 12 10 7 14 9 4 8 8 14 14 13 9 7 8 11 11 8 9 11 9 6 8 10 8 5 5 5 7 7 5 4 4 6 6 7 7 7 7 7 8 8 9 10 10 10 10 12 12 13 14 14 15 15 16 15 15 13 12 12 11 10 10 12 12 11
6 3 6 11 13 12 8 5 7 8 13 14 4 9 10 5 9 5 1 11 10 12 7 9 10 10 6 9 3 3 7 9 8 11 11 9 11 12 10 7 5 5 6 5 4 4 5 5 5 5 3 2 1 2 4 5 4 4 5 5 7 9 9 10 9 9 9 10 10 10 13 14 14 14 13 13 13 12 13 14 13 13 13 11 11 11
5 6 3 8 11 8 8 10 11 10 13 15 8 4 1 1 4 9 7 2 3 9 5 11 9 11 5 5 5 11 13 13 9 6 6 6 7 10 9 2 3 4 3 6 6 5 4 4 4 3 4 5 5 5 5 5 5 5 6 6 7 7 7 7 9 9 9 10 10 11 10 11 12 12 13 13 12 13 14 14 13 13 13 14 12 13
2 4 5 4 11 10 9 9 12 14 13 10 9 9 4 3 1 2 1 5 4 6 10 8 10 3 3 1 1 2 4 5 5 4 4 7 6 9 11 9 7 6 5 5 5 4 3 3 3 4 5 5 5 5 5 5 6 7 6 6 7 8 9 9 11 9 10 8 10 11 12 12 11 13 12 12 13 13 14 13 13 13 13 11 13 12
3 4 10 4 7 8 8 12 14 12 9 10 12 14 15 11 8 8 12 4 3 4 5 8 12 5 2 2 3 3 4 4 5 5 5 6 9 8 8 6 4 4 2 2 2 3 4 5 5 5 5 5 5 5 7 7 5 5 5 6 6 6 8 9 10 8 9 8 9 10 11 12 11 11 10 12 12 13 13 12 13 13 11 13 13 12
5 1 2 5 5 11 6 4 7 5 5 1 8 10 12 10 7 9 12 12 7 9 4 7 8 5 3 3 3 2 2 4 5 6 5 5 7 9 9 9 8 6 4 2 3 4 5 5 5 5 6 6 7 7 6 7 7 6 6 6 6 6 9 7 9 7 7 7 8 10 11 11 10 10 11 12 11 12 13 12 13 12 13 14 12 11
8 3 7 3 0 1 0 2 4 2 2 1 2 3 10 14 14 14 10 5 9 4 8 7 12 6 7 3 6 3 2 3 4 6 7 5 6 8 9 9 7 8 6 5 3 4 4 5 5 5 6 7 8 7 7 6 6 6 6 6 5 6 9 8 7 8 7 7 8 8 8 10 10 9 10 11 12 13 13 12 12 12 13 13 11 12
9 5 8 7 3 1 1 2 4 0 2 4 7 7 8 7 10 1 3 3 7 7 8 6 14 2 1 5 4 4 7 9 7 5 4 8 8 8 9 8 9 6 5 5 4 4 5 5 5 6 6 6 7 6 6 6 6 6 7 5 7 7 7 7 7 7 7 7 9 9 9 9 8 8 10 11 10 11 11 10 10 9 11 10 10 11
9 9 13 13 13 14 11 11 14 17 16 6 2 4 6 12 10 7 9 4 10 6 12 11 10 8 5 7 12 7 7 12 13 11 8 6 5 12 12 8 8 10 6 4 5 5 5 4 5 5 5 6 5 5 5 5 6 8 7 6 5 6 6 6 6 6 7 7 8 9 9 8 7 9 9 9 9 10 9 9 9 9 9 10 12 11
5 5 9 10 14 15 18 7 3 4 5 9 9 12 9 7 7 6 4 8 13 8 14 12 11 5 8 8 11 13 11 11 15 17 18 13 6 5 5 8 8 6 6 6 6 7 6 4 2 4 6 6 6 5 3 4 5 6 5 5 5 5 5 6 6 6 6 7 7 9 9 9 8 8 8 8 8 7 7 8 9 9 10 9 10 10
3 7 11 13 17 13 2 5 1 4 7 9 12 13 12 12 10 11 10 13 8 5 13 8 9 2 10 13 15 16 14 11 11 11 11 8 5 5 6 7 7 8 8 9 9 12 13 14 13 11 9 8 8 7 7 7 6 5 5 7 6 6 5 5 5 6 6 6 7 7 9 9 8 8 8 8 7 7 8 8 8 9 9 8 10 11
8 12 16 13 14 15 6 6 4 3 1 2 8 12 13 13 12 13 14 15 12 11 15 14 9 11 14 15 13 11 12 13 13 12 7 5 6 6 7 6 8 9 9 12 15 16 15 15 14 16 17 13 11 11 10 9 7 7 8 8 7 6 6 5 5 6 6 6 7 8 8 8 7 7 8 8 8 8 8 8 8 8 8 9 10 10
5 9 9 11 15 15 13 7 4 7 3 3 0 2 7 11 14 15 16 16 17 12 8 9 10 13 10 8 9 13 11 9 9 7 5 6 8 10 7 5 9 11 11 10 11 11 12 13 14 14 15 17 17 15 13 11 11 11 12 11 9 8 7 5 6 6 7 7 8 7 6 7 7 7 8 8 9 8 7 7 8 7 8 8 8 8
9 9 12 6 9 12 13 10 8 7 5 5 5 8 9 10 12 14 12 11 9 9 8 7 9 14 8 8 10 11 11 10 10 6 5 9 4 7 9 8 7 8 8 8 8 9 11 12 13 14 15 15 15 15 15 14 13 13 12 11 11 11 9 6 7 8 8 9 8 7 7 6 6 6 7 7 8 7 7 7 7 7 7 7 7 8
10 2 6 5 7 10 8 10 10 6 3 4 8 11 15 17 14 11 12 7 8 9 10 9 10 13 12 10 8 12 13 11 9 7 4 4 6 6 8 6 6 7 7 7 8 8 10 11 11 12 12 12 12 12 12 12 12 12 13 13 13 12 11 9 7 8 9 9 9 8 8 7 7 6 7 6 7 7 7 6 6 6 6 6 7 7
8 5 6 8 9 10 4 8 7 6 3 6 15 26 21 10 11 7 6 9 12 10 8 9 14 14 11 5 9 12 12 10 3 3 5 4 6 5 5 6 4 4 5 6 7 7 7 8 9 10 10 9 10 9 9 9 9 11 12 13 12 12 11 11 10 9 8 8 8 8 8 7 8 7 7 7 7 6 6 6 7 7 6 8 7 6
8 8 5 5 7 4 6 8 8 6 7 17 11 3 11 16 12 11 14 16 13 10 11 12 12 9 8 9 9 10 9 3 5 3 3 4 5 5 4 4 4 4 4 4 5 6 6 7 8 8 7 7 7 6 6 7 8 9 9 10 10 9 10 9 10 8 9 8 8 8 7 7 7 8 8 8 7 6 6 6 7 7 6 6 5 7
12 10 6 3 5 4 7 11 9 10 16 5 3 6 10 13 16 19 19 16 13 13 12 13 12 13 12 10 1 5 8 7 7 6 4 3 3 5 4 2 3 3 4 4 5 6 6 6 7 8 9 8 8 6 5 6 6 8 9 10 10 9 9 9 9 9 9 9 9 8 7 7 7 8 8 8 7 7 7 7 7 7 6 6 6 7
12 13 6 2 3 5 6 9 6 12 2 1 1 4 7 9 11 9 11 14 15 15 16 16 17 14 10 1 9 9 10 11 8 5 4 3 2 3 4 3 4 5 5 4 5 5 5 6 7 9 10 8 7 7 6 6 5 5 6 6 6 8 8 8 8 9 9 10 10 8 8 8 8 8 8 8 8 8 8 7 7 7 6 6 7 6
10 7 6 5 4 6 5 8 10 5 9 4 3 4 6 5 7 11 8 11 13 12 12 13 12 9 4 7 5 9 9 7 6 3 2 3 3 2 3 2 2 3 3 4 4 5 5 5 6 8 8 8 7 7 8 8 7 7 7 7 7 6 7 7 9 10 11 10 10 10 10 10 9 9 8 8 8 8 8 8 8 6 4 8 7 7
9 11 6 7 4 6 5 4 3 2 12 10 6 4 7 7 6 5 5 7 5 9 11 11 7 8 8 6 9 10 8 6 4 2 2 2 1 2 0 2 2 2 4 4 4 4 5 5 6 7 6 8 8 6 5 6 7 8 8 9 8 8 8 8 10 10 10 11 11 11 10 10 9 10 9 8 8 8 8 7 6 6 4 6 8 8
2 5 5 11 3 6 7 9 8 10 9 5 4 6 4 4 6 4 4 10 2 4 5 8 9 8 7 7 5 10 6 4 4 3 4 2 1 1 2 3 3 3 4 5 5 5 5 6 6 8 8 7 8 8 6 6 7 7 8 8 8 7 8 9 10 10 11 12 11 11 10 10 9 9 9 10 10 8 9 8 7 7 5 6 6 8
10 7 6 7 9 7 9 7 11 5 3 4 6 4 4 4 7 6 3 7 4 5 4 9 10 8 6 5 5 6 9 8 8 5 3 2 1 2 3 4 4 4 4 5 5 5 6 6 6 7 8 9 10 8 7 6 6 6 7 9 7 7 9 9 9 9 9 10 10 9 10 9 9 9 9 10 10 9 8 7 6 6 6 5 5 6
9 6 10 13 11 8 9 9 3 5 2 4 6 5 5 5 7 6 11 5 1 5 6 10 8 6 6 5 3 6 1 3 5 4 2 1 0 3 4 4 5 4 6 6 8 7 5 5 5 7 8 9 9 8 7 6 6 7 7 7 7 9 8 7 8 9 8 9 9 10 10 8 7 10 10 7 9 9 8 7 7 7 5 5 5 5
7 6 5 6 10 13 9 5 8 4 5 9 5 11 7 8 5 12 3 2 9 7 6 9 9 5 5 5 4 3 4 3 3 1 1 2 3 4 4 5 5 6 6 6 8 7 6 5 5 6 6 6 8 8 7 6 7 7 7 7 8 7 6 7 7 7 8 8 9 9 9 9 9 7 8 8 7 7 8 6 6 7 7 6 5 6
10 9 10 12 6 2 5 9 3 11 2 14 8 4 3 7 5 5 6 3 5 8 9 6 8 5 6 5 3 4 4 2 2 4 3 4 3 4 4 4 6 6 7 6 6 6 5 7 8 8 7 8 7 7 7 6 8 8 8 9 9 7 7 7 7 8 8 7 8 8 8 8 9 10 8 8 7 6 8 7 6 7 7 7 7 7
7 6 6 7 8 8 8 9 8 2 9 9 13 9 5 3 6 8 11 7 4 6 8 8 5 6 6 7 6 3 3 3 2 3 3 4 5 5 5 5 5 6 6 6 6 7 5 6 6 7 7 7 7 6 6 6 8 9 10 11 8 8 8 8 8 8 9 8 8 8 8 8 8 8 7 8 7 5 6 7 7 6 6 7 7 7
13 10 6 10 8 8 9 8 0 3 7 2 1 2 5 8 8 6 8 11 10 5 5 9 8 7 6 7 7 6 3 5 3 4 3 5 5 5 5 6 5 6 7 7 7 6 4 5 7 8 9 7 5 6 6 5 6 9 12 10 7 9 9 10 10 9 9 10 9 9 8 8 7 7 7 7 6 6 6 6 5 7 5 6 7 7
4 9 3 6 7 6 3 2 5 4 7 4 3 3 10 7 5 8 9 9 5 8 8 9 8 7 6 6 6 4 4 5 5 5 5 5 6 6 6 5 6 5 6 6 6 6 5 5 5 6 9 11 6 5 5 5 4 7 10 9 7 7 7 9 10 11 11 10 9 9 8 9 9 7 7 7 6 5 4 6 6 6 7 6 7 7
3 5 4 5 3 10 9 6 7 8 6 8 7 5 4 5 4 7 9 9 8 9 8 7 9 8 8 7 6 6 5 4 4 5 5 5 6 6 6 6 6 6 6 8 8 6 6 5 7 8 8 10 9 7 6 5 5 5 6 7 7 6 7 8 9 10 10 10 10 9 8 8 8 9 9 7 7 5 5 5 5 5 6 6 7 8
4 4 5 6 7 14 2 7 10 6 5 8 10 8 6 4 5 4 6 8 9 8 8 9 8 6 6 7 7 6 5 5 5 5 4 5 5 6 6 6 6 6 6 6 6 6 6 6 6 8 9 10 9 7 7 7 7 6 6 6 5 5 6 7 7 9 10 11 9 8 8 9 9 9 8 8 7 8 8 5 4 5 6 7 8 9
5 13 8 9 8 2 3 2 7 6 5 8 6 5 6 7 7 6 8 10 9 8 7 7 8 7 8 8 7 6 5 6 5 5 5 5 5 5 6 6 6 6 6 6 6 5 6 6 8 9 9 11 9 8 7 7 7 6 7 7 6 5 6 8 8 9 10 10 8 9 8 7 8 7 8 9 8 5 3 7 8 7 7 6 7 7
9 12 3 8 5 5 8 7 13 10 5 6 5 7 8 8 9 8 9 10 10 9 7 8 5 5 7 6 6 6 6 5 5 5 5 6 6 6 6 7 6 6 7 6 5 6 6 6 6 8 10 10 8 7 7 7 7 6 5 6 6 4 5 7 8 9 10 9 9 9 10 9 9 8 7 7 8 10 10 4 8 9 8 9 8 13
10 8 8 10 12 11 6 9 5 7 8 12 11 8 10 8 9 10 10 11 9 9 8 8 6 3 3 5 5 6 6 6 6 5 6 5 6 6 6 6 7 8 9 7 7 8 6 7 7 7 9 10 7 7 7 7 7 7 6 6 6 5 5 4 7 8 8 9 9 10 10 9 10 9 8 7 7 7 8 12 8 7 12 14 14 14
Wind_Direction
148 196 206 209 214 201 201 214 221 221 267 284 275 245 243 244 245 237 228 214 209 219 232 235 240 242 250 249 258 254 228 232 246 252 256 254 244 232 230 234 238 237 236 228 198 177 174 181 184 179 179 185 188 193 189 190 191 189 191 186 193 190 183 183 184 184 183 187 191 204 210 215 211 210 207 208 207 205 206 201 200 199 197 188 184 187
179 217 223 221 215 211 207 208 221 230 240 248 261 270 270 258 264 264 266 217 214 221 233 228 249 253 256 256 250 249 252 254 251 247 238 241 246 249 232 227 229 239 247 234 209 191 181 173 180 177 177 177 183 202 195 192 196 190 191 193 190 182 191 193 193 190 191 193 192 193 202 203 205 205 205 211 209 210 204 201 203 205 200 195 190 189
202 219 226 218 208 220 233 225 213 225 235 238 243 253 265 257 271 279 279 294 296 277 250 244 255 253 245 247 249 254 256 255 252 251 253 247 244 242 243 240 231 228 234 233 225 216 207 195 187 179 184 190 193 194 195 199 193 192 193 197 185 187 194 199 197 194 198 195 199 197 200 195 204 210 212 218 220 214 210 207 206 205 201 198 196 189
212 227 228 199 212 217 217 226 235 229 228 233 232 237 240 249 246 250 237 248 257 249 286 261 275 274 271 257 250 239 246 252 249 254 251 241 243 243 237 231 232 225 226 225 222 222 216 201 199 192 190 197 199 193 194 198 196 193 194 196 190 192 197 202 203 204 202 198 199 202 200 204 205 206 206 210 212 211 211 217 211 207 203 200 198 194
216 222 171 198 218 217 217 210 223 229 233 224 232 241 245 236 236 248 288 295 297 267 234 258 276 268 250 261 262 258 252 255 248 254 262 259 251 242 244 244 232 236 222 223 228 225 216 207 203 203 204 202 199 198 196 196 195 196 197 196 192 193 196 202 204 203 200 194 195 196 200 196 207 223 204 206 214 207 208 212 209 209 199 199 201 197
241 229 198 194 210 214 219 219 214 219 239 241 229 228 240 258 263 257 256 257 250 264 255 283 302 264 233 228 240 238 234 239 245 246 246 247 254 252 244 246 245 243 241 239 231 228 225 221 215 208 208 207 204 202 204 200 198 194 196 196 196 197 198 202 204 199 193 195 193 187 191 199 202 209 207 208 206 198 202 207 205 199 199 199 201 201
232 225 219 221 200 203 216 224 217 204 234 236 227 217 232 245 256 267 279 301 261 257 10 83 238 282 144 243 235 229 228 239 233 234 243 237 240 246 246 244 242 237 239 245 247 244 245 244 237 229 211 211 209 211 208 207 201 198 198 198 196 197 200 201 200 194 191 198 198 198 200 202 201 208 216 217 212 206 208 201 202 204 200 202 200 203
211 225 222 222 222 204 209 222 217 214 223 239 229 212 204 219 231 237 244 246 262 321 297 227 239 283 287 240 243 250 263 266 261 242 235 232 234 234 238 238 236 231 228 232 238 236 238 243 243 243 236 216 216 215 212 210 202 201 205 203 202 202 203 201 197 190 192 198 200 202 206 207 210 213 220 207 209 206 203 203 205 200 204 203 203 203
205 211 216 219 213 222 218 213 211 213 229 243 72 51 295 298 287 261 234 232 249 265 252 244 211 276 257 266 171 241 252 245 248 252 259 263 263 245 233 232 230 224 224 228 231 230 230 231 235 237 237 235 225 212 213 210 204 204 207 206 203 205 207 210 200 195 196 199 201 203 204 210 218 221 224 207 203 204 198 207 208 205 205 202 205 206
207 208 208 209 207 219 220 214 206 201 223 237 194 119 329 5 335 357 357 338 305 233 244 234 185 234 266 266 215 228 239 242 245 246 246 241 241 243 252 236 225 222 226 229 227 225 228 229 233 237 236 235 233 226 216 214 208 207 207 206 202 206 205 206 202 199 201 204 205 205 206 212 219 219 223 208 206 207 201 209 208 206 206 204 202 207
238 191 192 197 215 219 217 226 217 209 229 286 243 232 202 151 322 345 326 20 352 250 244 240 210 214 267 267 193 212 234 231 232 237 234 231 232 235 237 236 223 220 222 220 228 229 230 228 231 237 238 236 235 231 225 217 211 208 206 206 207 210 209 206 204 201 206 207 206 210 211 214 219 217 214 210 216 212 204 211 210 205 207 203 206 203
248 242 164 192 200 215 222 238 217 220 204 203 222 221 238 221 111 276 322 111 246 252 237 233 227 217 243 274 205 223 249 263 270 269 265 256 258 242 225 230 228 217 211 221 225 233 235 246 245 242 247 240 235 237 235 230 214 211 210 208 213 215 212 208 207 206 210 208 210 212 214 218 220 220 213 212 216 214 211 210 211 206 202 207 207 201
242 235 226 136 24 176 187 218 234 222 167 181 195 207 213 213 148 230 152 225 220 236 229 218 210 236 232 257 269 279 260 242 259 244 252 245 250 255 240 232 228 225 225 218 220 226 234 240 243 244 249 242 233 228 228 228 222 215 211 206 208 214 209 210 206 207 208 209 210 210 214 220 221 221 218 217 220 218 216 213 211 202 206 203 200 205
231 237 230 221 229 199 183 196 188 214 199 192 196 188 197 207 213 236 213 246 270 255 235 238 182 242 177 264 249 246 251 248 259 266 277 287 284 309 303 288 266 240 225 229 231 239 248 252 256 250 244 224 225 229 230 231 224 215 211 208 209 218 211 213 212 212 213 213 214 214 216 220 221 225 221 222 222 220 219 214 214 210 207 202 203 205
200 214 225 204 223 166 209 209 194 197 172 203 184 195 204 193 200 225 208 224 222 252 227 198 206 227 159 222 238 238 247 237 229 243 242 244 253 256 241 246 252 248 251 253 257 257 257 259 256 245 231 217 214 220 226 228 225 210 213 210 214 222 220 217 216 215 215 216 216 216 218 220 221 225 224 225 224 223 221 218 219 215 210 208 208 208
213 231 183 201 186 172 198 206 204 178 163 192 191 196 218 221 200 231 208 235 267 283 252 183 205 212 189 249 237 226 235 249 196 226 230 238 243 245 246 241 239 239 243 250 257 261 260 253 246 242 236 222 223 230 230 230 230 221 221 218 219 221 223 223 221 219 218 219 217 217 218 220 221 223 226 229 226 227 224 223 222 221 215 214 213 212
194 231 164 194 203 197 194 191 204 181 207 180 173 206 216 227 240 301 303 275 300 287 246 243 277 261 304 281 281 279 285 282 232 229 222 236 238 228 232 238 238 236 240 250 253 253 257 260 253 248 248 244 243 245 240 239 232 228 229 226 229 230 231 230 227 224 222 223 222 222 220 222 222 224 225 226 228 228 228 228 226 224 221 219 216 214
188 217 203 154 197 217 207 186 191 210 241 159 200 203 153 42 71 191 248 255 238 245 250 210 240 256 235 283 182 237 245 251 247 245 233 228 236 232 234 234 238 239 237 244 251 263 257 241 245 257 274 271 236 229 238 239 234 232 229 227 232 237 237 239 236 232 228 228 227 227 225 223 222 224 227 228 230 228 227 227 227 224 222 219 216 214
160 266 209 189 197 205 199 150 201 219 213 230 218 149 187 190 220 187 162 229 231 235 258 233 264 259 225 248 321 245 236 248 244 244 251 242 237 239 238 237 240 246 249 269 313 330 332 348 7 17 10 342 308 257 243 252 258 259 252 244 237 240 236 237 238 236 234 228 229 228 227 225 225 226 229 228 228 228 227 226 224 221 221 221 216 214
170 190 246 175 187 166 179 174 210 204 212 224 241 264 13 104 241 203 199 308 277 274 276 249 214 250 204 243 232 270 276 282 301 333 12 349 345 302 241 220 262 287 355 38 42 38 32 23 9 355 325 306 303 310 299 288 289 276 260 257 256 258 258 256 249 243 240 234 233 236 232 231 227 227 228 227 224 225 227 227 225 223 221 220 215 216
307 162 228 208 178 139 197 181 210 203 192 196 204 221 199 198 192 53 1 209 212 248 240 278 256 232 224 272 269 323 8 21 35 7 345 345 338 21 32 38 45 53 51 44 37 19 358 336 322 315 306 295 293 283 277 268 262 258 259 258 256 254 257 254 251 247 244 238 237 237 237 236 230 230 227 229 225 226 227 228 225 224 223 221 222 215
212 221 198 178 171 190 200 196 205 206 199 197 192 200 209 199 196 211 243 179 204 196 219 235 252 246 245 286 30 346 338 17 32 36 355 355 10 21 13 15 12 48 49 59 355 341 323 322 311 298 298 300 300 301 310 299 281 276 269 261 267 265 259 258 260 249 250 243 241 239 239 238 235 232 229 229 227 226 226 225 224 223 222 223 224 216
176 165 125 213 179 199 178 68 70 75 82 117 190 211 205 217 206 213 233 231 219 219 244 253 298 210 343 341 16 36 1 25 23 31 18 9 3 357 349 348 336 346 344 331 313 313 310 298 287 283 288 294 292 291 294 302 307 297 288 287 281 275 273 265 267 268 259 253 249 247 244 243 238 232 229 229 229 228 226 223 224 218 219 222 222 218
68 176 183 245 351 349 302 112 30 40 85 273 313 235 192 211 203 219 230 232 252 238 231 238 244 259 205 342 329 345 350 350 358 8 355 348 341 345 334 322 319 314 310 301 289 288 289 283 286 296 299 295 298 297 294 295 306 310 306 298 295 286 285 290 288 283 280 275 268 263 259 251 245 237 232 229 229 229 226 223 223 218 220 221 218 218
198 180 192 181 221 80 326 329 279 137 175 200 207 204 210 209 209 192 88 54 248 223 247 244 257 247 280 296 313 352 3 343 332 325 335 322 315 307 303 306 298 285 283 287 288 300 308 310 309 294 284 293 294 300 301 302 310 312 303 316 314 303 298 299 300 299 291 287 282 276 268 263 257 249 241 235 233 233 231 228 227 223 224 221 220 219
197 171 181 187 184 198 206 212 214 217 207 192 230 208 197 198 181 131 219 185 237 215 235 239 251 249 285 346 314 327 336 318 308 300 302 294 301 300 298 295 290 286 291 306 314 317 317 287 279 299 313 320 309 288 292 309 320 312 308 308 298 296 303 299 303 301 300 295 290 285 279 274 269 259 252 246 243 239 234 229 225 223 223 217 221 218
186 186 206 194 200 202 212 211 325 94 105 188 198 202 209 211 205 209 213 220 229 218 238 233 243 269 289 294 295 298 301 295 296 299 301 301 296 280 287 308 310 314 328 329 326 327 333 346 327 322 329 323 311 293 297 309 306 298 290 291 296 296 297 300 305 300 296 293 289 289 283 278 270 265 265 260 253 247 237 229 225 220 222 213 217 216
141 200 212 203 219 223 131 150 234 140 166 194 189 203 198 201 191 199 199 229 217 233 253 239 234 213 260 276 275 278 281 277 272 271 272 291 315 322 316 305 313 327 334 336 343 350 350 346 347 348 346 340 330 338 339 329 320 319 337 331 322 317 314 306 304 295 287 282 281 277 278 276 275 274 269 267 261 250 240 233 228 225 223 210 214 214
170 205 212 201 222 223 142 162 163 84 122 144 179 187 191 192 189 198 216 220 213 216 234 241 233 239 251 251 258 257 254 254 255 266 278 293 306 313 311 308 309 324 355 11 9 5 359 353 348 347 347 352 355 350 344 338 341 348 336 326 323 319 310 295 295 292 283 279 272 269 270 274 277 277 277 271 266 257 247 238 231 228 223 217 217 214
161 226 213 197 215 222 221 205 144 136 161 98 146 193 191 194 202 205 216 218 215 225 228 245 259 247 241 251 246 249 246 255 269 282 309 321 297 287 288 333 19 23 18 10 7 2 356 352 351 349 347 347 347 347 349 347 342 337 331 325 325 325 310 318 303 296 292 281 272 271 270 271 272 274 275 277 273 268 259 249 240 230 228 228 221 216
186 209 198 178 211 227 221 231 243 213 166 180 201 201 213 216 213 210 216 223 222 236 231 232 248 263 243 233 245 261 268 265 268 288 287 282 342 38 51 41 27 23 14 11 11 5 0 357 355 352 350 346 343 343 342 340 336 332 330 329 329 326 319 323 311 303 293 288 284 281 278 277 276 275 275 272 274 275 272 261 252 242 237 232 223 219
189 247 161 162 207 236 217 207 224 242 258 256 256 239 221 212 216 214 217 208 209 219 218 222 238 251 251 229 236 250 257 264 274 282 290 59 62 54 53 45 33 18 16 10 6 3 1 1 353 350 344 340 338 339 339 338 337 337 334 330 327 324 323 323 312 300 296 291 296 297 293 289 288 286 281 282 274 272 272 273 268 255 243 238 233 228
171 181 165 169 196 233 194 171 187 118 84 300 252 235 227 224 220 215 218 213 218 209 216 211 229 229 242 213 220 241 251 267 297 50 71 65 69 69 60 51 42 21 17 10 5 360 355 351 345 336 335 333 333 332 328 332 336 333 327 324 321 320 323 321 318 311 305 302 303 301 298 298 299 295 291 284 279 277 277 271 269 265 258 246 238 229
171 181 179 161 189 199 147 147 123 141 197 228 249 187 188 215 208 217 225 218 218 198 219 222 234 239 237 237 229 240 243 213 127 81 84 103 89 80 68 57 39 29 16 8 3 351 343 341 332 323 317 312 310 313 312 328 327 318 314 311 315 321 323 324 323 321 314 314 312 306 301 299 300 297 292 292 291 291 286 279 267 262 256 260 257 240
179 177 191 157 174 161 142 127 158 193 225 229 118 175 174 193 197 212 228 226 225 221 227 237 237 236 237 239 258 103 112 106 94 103 79 52 73 86 90 57 27 9 12 353 353 343 331 324 315 311 314 317 318 319 328 330 329 319 321 326 328 330 330 331 329 331 330 327 320 318 315 309 306 302 301 299 295 291 281 272 273 273 271 267 253 245
171 178 158 157 160 120 154 165 193 220 249 340 185 158 178 177 193 202 234 236 228 222 219 229 232 234 240 181 118 138 125 116 102 88 79 67 61 62 55 23 4 3 350 344 327 317 316 314 312 309 307 303 308 319 328 328 322 322 315 312 324 330 333 334 339 339 341 338 336 335 331 325 314 306 303 301 301 297 287 278 270 274 279 276 271 271
165 156 164 186 185 178 183 195 228 350 329 245 219 189 143 167 167 177 209 238 220 220 214 222 226 222 128 137 156 129 131 113 100 94 74 73 54 41 34 24 360 315 318 304 295 288 286 290 295 297 299 304 306 317 328 329 331 330 328 339 342 339 337 345 348 346 341 335 333 331 328 324 317 312 306 301 301 296 290 287 278 270 265 269 266 265
171 170 180 164 207 175 152 203 229 245 243 240 166 189 163 173 173 173 182 263 206 213 208 209 200 135 132 132 135 145 133 99 114 180 164 141 113 41 258 256 274 291 286 289 287 285 296 293 290 292 288 296 305 305 312 325 334 334 339 344 341 346 346 353 347 341 336 330 329 325 323 319 315 311 307 305 301 295 290 282 275 266 241 247 261 259
207 165 165 185 187 151 206 210 211 217 244 123 170 140 139 119 171 151 153 251 192 137 128 125 120 127 134 133 137 138 114 138 178 183 157 137 109 263 275 267 253 259 272 280 290 292 293 292 289 295 302 301 310 319 326 329 336 340 341 341 339 341 346 349 342 339 333 326 322 321 321 319 317 313 309 307 301 298 296 291 278 266 246 245 254 262
184 182 163 186 208 201 195 204 224 208 250 197 140 148 146 141 97 91 173 260 201 149 138 116 125 128 126 118 126 130 154 167 175 183 157 168 193 229 235 263 277 279 287 280 279 273 283 292 308 310 309 316 314 317 321 329 336 335 336 336 330 343 346 341 335 323 316 316 318 319 319 320 319 314 313 306 302 299 290 289 291 278 262 255 248 263
172 171 188 198 201 194 194 223 274 270 209 165 146 149 120 106 103 142 212 211 203 103 113 116 118 124 120 122 112 120 94 117 136 165 171 165 258 276 263 260 261 265 274 284 283 288 288 283 288 292 301 304 307 313 315 327 334 328 331 327 336 340 332 325 321 319 317 316 316 319 319 319 316 313 309 300 295 297 297 296 292 291 279 272 265 261
173 171 181 190 196 203 200 205 234 286 208 168 177 143 155 105 176 211 216 182 133 118 105 118 118 113 112 112 103 104 139 134 146 121 238 236 219 244 254 260 272 281 267 258 270 283 284 288 287 287 291 292 302 309 316 326 326 317 324 330 331 322 318 321 318 316 316 315 315 315 318 319 315 305 299 301 302 302 300 301 304 302 295 284 275 270
171 162 182 187 178 133 169 217 210 243 196 142 141 104 180 145 225 150 127 75 111 121 121 116 127 137 125 119 128 138 143 161 175 211 221 243 235 245 244 254 264 269 279 287 290 277 278 303 309 309 302 303 307 313 316 326 320 319 323 325 316 317 323 320 320 318 313 309 313 320 320 319 319 318 315 306 301 301 302 306 307 299 292 288 283 273
152 166 192 199 185 180 179 195 210 167 129 167 146 184 202 180 164 145 130 123 116 126 131 132 143 158 153 143 155 163 177 185 245 246 263 274 267 269 263 257 259 266 270 264 254 270 272 274 285 300 306 307 308 312 314 323 317 318 321 314 316 323 319 320 320 317 315 316 318 320 323 321 318 314 309 309 308 303 301 306 306 299 293 288 284 285
191 205 168 183 160 192 207 212 171 181 138 200 125 110 133 137 141 144 132 141 145 161 146 142 160 173 168 153 159 164 177 187 202 200 190 239 254 264 276 275 267 270 276 280 284 277 267 272 295 305 306 304 306 305 305 306 310 311 313 310 328 321 323 322 322 321 320 321 321 321 318 318 318 317 318 316 313 313 310 305 311 309 305 293 287 282
175 193 99 154 207 217 340 108 130 131 118 78 26 93 130 135 133 131 134 133 161 151 157 157 158 166 173 154 146 161 175 198 202 226 223 247 253 264 269 287 293 284 280 286 292 292 279 294 302 306 308 310 315 310 297 294 284 294 296 308 314 311 315 317 318 319 319 318 317 316 317 323 325 324 323 320 316 297 279 290 304 303 304 295 283 280
246 172 137 179 146 136 228 152 152 166 149 132 108 82 78 117 132 139 143 147 147 150 149 154 155 165 169 160 161 173 191 192 191 219 224 235 247 253 258 258 268 272 283 294 288 300 310 313 311 307 308 305 311 317 305 301 286 263 280 298 304 311 313 312 310 309 312 313 313 314 319 326 330 329 328 330 327 315 296 282 280 287 292 291 290 283
230 189 158 199 162 182 238 167 165 155 155 145 141 131 146 133 118 112 138 146 147 154 150 158 153 160 154 165 182 173 202 207 200 229 230 237 243 253 259 259 263 279 276 265 282 299 300 302 297 300 304 301 302 309 306 302 298 299 302 297 299 305 311 310 309 311 309 309 310 313 319 322 322 326 324 328 333 332 330 311 281 281 275 286 285 290
146 140 208 172 175 132 58 48 115 101 128 165 165 142 138 146 134 126 132 139 146 144 152 160 157 173 159 187 175 181 194 225 217 214 221 236 251 264 264 263 263 259 270 289 288 284 282 292 301 296 296 294 300 300 298 295 298 305 308 307 310 317 317 311 312 311 309 309 313 313 316 312 313 318 323 322 323 314 278 304 315 294 279 240 246 256
122 184 158 111 179 188 181 185 148 141 187 188 182 163 157 166 153 149 143 142 152 158 158 158 186 175 171 178 177 179 196 224 232 220 232 235 240 249 265 275 282 287 290 281 278 283 288 285 280 289 292 292 293 291 288 291 296 301 301 300 300 309 311 311 314 315 315 317 317 317 321 321 319 318 319 323 325 326 324 246 241 272 277 291 263 250
172 173 148 176 186 204 149 162 165 135 160 183 178 176 166 162 149 150 156 162 167 172 165 158 171 192 196 224 198 191 207 211 234 230 242 243 245 241 246 261 282 289 289 296 309 306 298 288 287 287 291 292 294 289 292 295 300 304 301 296 292 295 293 304 310 307 306 316 319 319 318 315 318 319 317 316 322 326 323 324 320 245 262 265 271 274